Weather History for Escanaba, MI

Change the Weather History Date:

Monday, November 17, 2014

  Actual Average Record
Temperature  
Mean Temperature 16 °F -  
Max Temperature 21 °F 41 °F 57 °F (1958)
Min Temperature 10 °F 29 °F -1 °F (1959)
Degree Days  
Heating Degree Days 50    
Moisture  
Dew Point 6 °F    
Average Humidity 65    
Maximum Humidity 79    
Minimum Humidity 54    
Precipitation  
Precipitation 0.00 in - - ()
Sea Level Pressure  
Sea Level Pressure 29.63 in    
Wind  
Wind Speed 12 mph (West)    
Max Wind Speed 20 mph    
Max Gust Speed 26 mph    
Visibility 10 miles    
Events      
Averages and records for this station are not official NWS values.
T = Trace of Precipitation, MM = Missing Value Source: NWS Daily Summary

Daily Weather History Graph

Daily Weather History Graph

Search for Another Location

Airport:

Trip Planner

Search our weather history database for the weather conditions in past years. The results will help you decide how hot, cold, wet, or windy it might be!

Date:

Astronomy

Nov. 17, 2014 Rise Set
Actual Time 7:50 AM EST 5:15 PM EST
Civil Twilight 7:18 AM EST 5:47 PM EST
Nautical Twilight 6:42 AM EST 6:24 PM EST
Astronomical Twilight 6:06 AM EST 6:59 PM EST
Moon 2:37 AM EST (11/17) 2:52 PM EST (11/17)
Length of Visible Light 10h 29m
Length of Day
9h 24m
Waning Crescent, 23% of the Moon is Illuminated
Nov 17
Waning Crescent
Nov 22
New
Nov 29
First Quarter
Dec 6
Full
Dec 14
Last Quarter

Hourly Weather History & Observations

Time (EST) Temp. Windchill Dew Point Humidity Pressure Visibility Wind Dir Wind Speed Gust Speed Precip Events Conditions
12:15 AM 21.2 °F 10.9 °F 14.0 °F 74% 29.72 in 10.0 mi SW 9.2 mph - N/A   Clear
12:35 AM 19.4 °F 8.6 °F 12.2 °F 74% 29.72 in 10.0 mi SW 9.2 mph - N/A   Clear
12:55 AM 19.4 °F 7.9 °F 12.2 °F 74% 29.71 in 10.0 mi SW 10.4 mph - N/A   Clear
1:15 AM 19.4 °F 7.2 °F 12.2 °F 74% 29.71 in 10.0 mi WSW 11.5 mph - N/A   Clear
1:35 AM 19.4 °F 12.8 °F 10.4 °F 68% 29.71 in 10.0 mi SW 4.6 mph - N/A   Mostly Cloudy
1:55 AM 19.4 °F 10.4 °F 12.2 °F 74% 29.71 in 10.0 mi WSW 6.9 mph - N/A   Mostly Cloudy
2:15 AM 19.4 °F 9.5 °F 12.2 °F 74% 29.70 in 10.0 mi WSW 8.1 mph - N/A   Mostly Cloudy
2:35 AM 17.6 °F 5.7 °F 10.4 °F 73% 29.70 in 10.0 mi West 10.4 mph - N/A   Overcast
2:55 AM 17.6 °F 5.7 °F 8.6 °F 68% 29.70 in 10.0 mi West 10.4 mph - N/A   Overcast
3:15 AM 17.6 °F 5.0 °F 8.6 °F 68% 29.70 in 10.0 mi West 11.5 mph - N/A   Overcast
3:35 AM 15.8 °F 5.1 °F 6.8 °F 68% 29.70 in 10.0 mi West 8.1 mph - N/A   Overcast
3:55 AM 15.8 °F 5.1 °F 6.8 °F 68% 29.69 in 10.0 mi West 8.1 mph - N/A   Overcast
4:15 AM 15.8 °F 4.2 °F 6.8 °F 68% 29.68 in 10.0 mi West 9.2 mph - N/A   Overcast
4:35 AM 15.8 °F 5.1 °F 6.8 °F 68% 29.68 in 10.0 mi WSW 8.1 mph - N/A   Overcast
4:55 AM 15.8 °F 5.1 °F 6.8 °F 68% 29.68 in 10.0 mi West 8.1 mph - N/A   Overcast
5:15 AM 15.8 °F 3.4 °F 6.8 °F 68% 29.68 in 10.0 mi West 10.4 mph - N/A   Overcast
5:35 AM 15.8 °F 2.1 °F 6.8 °F 68% 29.67 in 10.0 mi West 12.7 mph - N/A   Overcast
5:55 AM 14.0 °F 0.5 °F 6.8 °F 73% 29.67 in 10.0 mi West 11.5 mph 17.3 mph N/A   Mostly Cloudy
6:15 AM 12.2 °F -2.5 °F 6.8 °F 79% 29.66 in 10.0 mi West 12.7 mph - N/A   Partly Cloudy
6:35 AM 12.2 °F -1.8 °F 3.2 °F 67% 29.66 in 10.0 mi West 11.5 mph - N/A   Clear
6:55 AM 10.4 °F -4.8 °F 5.0 °F 79% 29.66 in 10.0 mi West 12.7 mph - N/A   Mostly Cloudy
7:15 AM 10.4 °F -5.4 °F 3.2 °F 73% 29.65 in 10.0 mi West 13.8 mph 18.4 mph N/A   Overcast
7:35 AM 10.4 °F -4.1 °F 3.2 °F 73% 29.65 in 10.0 mi West 11.5 mph - N/A   Overcast
7:55 AM 10.4 °F -4.8 °F 3.2 °F 73% 29.65 in 10.0 mi West 12.7 mph - N/A   Overcast
8:15 AM 10.4 °F -5.4 °F 3.2 °F 73% 29.64 in 10.0 mi West 13.8 mph - N/A   Mostly Cloudy
8:35 AM 10.4 °F -6.6 °F 3.2 °F 73% 29.63 in 10.0 mi West 16.1 mph 19.6 mph N/A   Partly Cloudy
8:55 AM 10.4 °F -6.0 °F 3.2 °F 73% 29.64 in 10.0 mi West 15.0 mph 19.6 mph N/A   Clear
9:15 AM 10.4 °F -7.2 °F 3.2 °F 73% 29.63 in 10.0 mi West 17.3 mph 23.0 mph N/A   Clear
9:35 AM 12.2 °F -3.7 °F 3.2 °F 67% 29.63 in 10.0 mi WNW 15.0 mph - N/A   Clear
9:55 AM 12.2 °F -5.3 °F 3.2 °F 67% 29.62 in 10.0 mi WNW 18.4 mph 24.2 mph N/A   Clear
10:15 AM 12.2 °F -3.7 °F 3.2 °F 67% 29.62 in 10.0 mi West 15.0 mph - N/A   Clear
10:35 AM 15.8 °F 0.3 °F 5.0 °F 62% 29.61 in 10.0 mi WNW 16.1 mph - N/A   Partly Cloudy
10:55 AM 15.8 °F 0.3 °F 6.8 °F 68% 29.61 in 10.0 mi West 16.1 mph - N/A   Clear
11:15 AM 17.6 °F 2.7 °F 5.0 °F 58% 29.61 in 10.0 mi West 16.1 mph 19.6 mph N/A   Clear
11:35 AM 17.6 °F 2.2 °F 5.0 °F 58% 29.60 in 10.0 mi West 17.3 mph 21.9 mph N/A   Clear
11:55 AM 19.4 °F 5.0 °F 6.8 °F 58% 29.59 in 10.0 mi West 16.1 mph 23.0 mph N/A   Clear
12:15 PM 19.4 °F 6.0 °F 5.0 °F 54% 29.59 in 10.0 mi WNW 13.8 mph 21.9 mph N/A   Clear
12:35 PM 19.4 °F 4.5 °F 6.8 °F 58% 29.57 in 10.0 mi WNW 17.3 mph 24.2 mph N/A   Clear
12:55 PM 19.4 °F 6.6 °F 6.8 °F 58% 29.58 in 10.0 mi West 12.7 mph - N/A   Clear
1:15 PM 21.2 °F 8.3 °F 6.8 °F 54% 29.57 in 10.0 mi West 13.8 mph - N/A   Clear
1:35 PM 21.2 °F 7.8 °F 6.8 °F 54% 29.57 in 10.0 mi West 15.0 mph 19.6 mph N/A   Clear
1:55 PM 21.2 °F 9.5 °F 6.8 °F 54% 29.57 in 10.0 mi WNW 11.5 mph - N/A   Clear
2:15 PM 21.2 °F 8.3 °F 8.6 °F 58% 29.56 in 10.0 mi West 13.8 mph 21.9 mph N/A   Clear
2:35 PM 21.2 °F 7.8 °F 6.8 °F 54% 29.57 in 10.0 mi West 15.0 mph - N/A   Clear
2:55 PM 21.2 °F 6.8 °F 8.6 °F 58% 29.57 in 10.0 mi West 17.3 mph 24.2 mph N/A   Scattered Clouds
3:15 PM 21.2 °F 7.8 °F 6.8 °F 54% 29.57 in 10.0 mi West 15.0 mph 18.4 mph N/A   Overcast
3:35 PM 21.2 °F 8.3 °F 6.8 °F 54% 29.58 in 10.0 mi West 13.8 mph 20.7 mph N/A   Overcast
3:55 PM 21.2 °F 8.9 °F 6.8 °F 54% 29.59 in 10.0 mi West 12.7 mph - N/A   Overcast
4:15 PM 19.4 °F 6.6 °F 6.8 °F 58% 29.59 in 10.0 mi WNW 12.7 mph 18.4 mph N/A   Mostly Cloudy
4:35 PM 19.4 °F 7.2 °F 6.8 °F 58% 29.60 in 10.0 mi West 11.5 mph - N/A   Partly Cloudy
4:55 PM 19.4 °F 7.2 °F 5.0 °F 54% 29.60 in 10.0 mi West 11.5 mph 19.6 mph N/A   Clear
5:15 PM 17.6 °F 4.3 °F 5.0 °F 58% 29.61 in 10.0 mi West 12.7 mph 17.3 mph N/A   Clear
5:35 PM 17.6 °F 4.3 °F 6.8 °F 63% 29.61 in 10.0 mi West 12.7 mph - N/A   Clear
5:55 PM 17.6 °F 3.7 °F 6.8 °F 63% 29.61 in 10.0 mi West 13.8 mph - N/A   Clear
6:15 PM 15.8 °F 2.1 °F 6.8 °F 68% 29.61 in 10.0 mi West 12.7 mph - N/A   Clear
6:35 PM 15.8 °F 1.4 °F 6.8 °F 68% 29.61 in 10.0 mi West 13.8 mph 23.0 mph N/A   Scattered Clouds
6:55 PM 17.6 °F 1.7 °F 6.8 °F 63% 29.60 in 10.0 mi West 18.4 mph - N/A   Overcast
7:15 PM 15.8 °F -1.1 °F 6.8 °F 68% 29.61 in 10.0 mi West 19.6 mph 26.5 mph N/A   Scattered Clouds
7:35 PM 15.8 °F 0.3 °F 3.2 °F 58% 29.61 in 10.0 mi West 16.1 mph 24.2 mph N/A   Partly Cloudy
7:55 PM 15.8 °F -1.1 °F 3.2 °F 58% 29.60 in 10.0 mi West 19.6 mph 26.5 mph N/A   Mostly Cloudy
8:15 PM 15.8 °F -1.1 °F 3.2 °F 58% 29.60 in 10.0 mi West 19.6 mph 26.5 mph N/A   Overcast
8:35 PM 14.0 °F -2.0 °F 5.0 °F 67% 29.60 in 10.0 mi West 16.1 mph 21.9 mph N/A   Mostly Cloudy
8:55 PM 14.0 °F -2.0 °F 5.0 °F 67% 29.60 in 10.0 mi West 16.1 mph 21.9 mph N/A   Mostly Cloudy
9:15 PM 14.0 °F -1.4 °F 5.0 °F 67% 29.59 in 10.0 mi West 15.0 mph 24.2 mph N/A   Partly Cloudy
9:35 PM 14.0 °F -2.5 °F 5.0 °F 67% 29.59 in 10.0 mi West 17.3 mph 21.9 mph N/A   Partly Cloudy
9:55 PM 14.0 °F -2.0 °F 5.0 °F 67% 29.59 in 10.0 mi West 16.1 mph 21.9 mph N/A   Clear
10:15 PM 14.0 °F -2.0 °F 5.0 °F 67% 29.58 in 10.0 mi West 16.1 mph 20.7 mph N/A   Clear
10:35 PM 14.0 °F -2.5 °F 6.8 °F 73% 29.58 in 10.0 mi West 17.3 mph - N/A   Mostly Cloudy
10:55 PM 15.8 °F -0.6 °F 6.8 °F 68% 29.58 in 10.0 mi West 18.4 mph 21.9 mph N/A   Overcast
11:15 PM 15.8 °F 0.9 °F 5.0 °F 62% 29.58 in 10.0 mi West 15.0 mph 21.9 mph N/A   Overcast
11:35 PM 15.8 °F 0.3 °F 6.8 °F 68% 29.58 in 10.0 mi West 16.1 mph 24.2 mph N/A   Overcast
11:55 PM 15.8 °F -0.6 °F 5.0 °F 62% 29.57 in 10.0 mi West 18.4 mph 23.0 mph N/A   Overcast